Location: Cran-Gévrier
(45.9039°N, 6.1012°E)
Time: 11:13:28
(UTC+00:00)

Cosmos 841 Rocket - Pass Details

Date: 09 February 2023
Orbit: 746 x 770 km, 74.0° (Epoch: 01 April)

Event Time Altitude Azimuth Distance (km) Brightness Sun altitude
Rises 17:54:56 0° 335° (NNW) 3,254 7.0 -11.3°
Reaches altitude 10° 17:57:21 10° 331° (NNW) 2,321 6.3 -11.7°
Maximum altitude 18:02:31 58° 254° (WSW) 892 4.2 -12.6°
Drops below altitude 10° 18:07:37 10° 176° (S) 2,293 6.0 -13.5°
Sets 18:10:00 0° 172° (S) 3,211 6.7 -13.9°
